Location: Alvediston
(51.0078°N, 2.0364°W)
Time: 15:35:03
(UTC+00:00)

STARLINK-81 - Pass Details

Date: 27 February 2020
Orbit: 528 x 531 km, 53.0° (Epoch: 28 March)

Event Time Altitude Azimuth Distance (km) Brightness Sun altitude
Rises 18:47:58 0° 270° (W) 2,665 9.4 -10.7°
Reaches altitude 10° 18:50:12 10° 273° (W) 1,776 7.8 -11.1°
Maximum altitude 18:54:12 65° 356° (N) 586 3.7 -11.7°
Enters shadow 18:57:06 18° 76° (ENE) 1,347 5.0 -12.1°
